Showing default

EDRS-C, 44475

Orbit data source: Space-Track

EDRS-C, 44475 is a payload satellite owned by ESA (ESA) in GEO that was launched on Tue, 06 Aug 2019 UTC via an ARIANE 5ECA+ launch vehicle from the French Guiana (FRGUI). Payloads include a variety of satellites, spacecraft, and rockets equipped with specific instruments for various scientific and technological missions. These include communications satellites like Starlink; space stations such as the ISS; scientific satellites like the Hubble; Earth observation satellites from companies like Planet Labs, Umbra, and HawkEye 360; GPS; miniature CubeSats for education and research; and military/defense satellites.

Not visible in the next 10 days
EDRS-C details
Identifier
44475, 2019-049A
Orbit
GEO
Last TLE update17 hours ago
Origin
Flag of ESAESA (ESA)
ManufacturerOHB
MissionOperational Civil Communications
Bus & MotorSMALLGEO, S400
Mass3,186 kg wet, ~1,700 kg dry
Launch date (UTC)
2019-08-06 (5 years ago)
Launch vehicle
ARIANE 5ECA+
Launch site
French Guiana (FRGUI)
Object type
Payload
Rocket body
Debris
Shape & HBRBox + 2 Pan, 20.8 m
Radar Cross Section22.899 m², Large (>1 m²)

Expand to show TLE details & history

TLE from 17 hours ago
0 EDRS-C
1 44475U 19049A   24347.68589309  .00000169  00000-0  00000+0 0  9990
2 44475   0.0827 253.1803 0000740 328.0382 138.7892  1.00268053 19667
Epoch: 2024-12-12T16:27Z
Definitive object data (Epoch: 2024-12-12T16:27:41.162Z)
Latitude0.08791°
Longitude31.21573°
Altitude35,789.462 km
Speed3.075 km/s
True Right ascension23h 59m 59s
True Declination0° 05' 16"
Sunlit
Object was in daylight at TLE epoch
Visualization TLE readout
Latitude-0.03074°
Longitude-80.60437°
Altitude35,784.248 km
Speed3.075 km/s
Apparent Right ascension16h 49m 39s
Apparent Declination-5° 06' 14"
Sunlit
Object is in daylight
Visualization observer readout
Local Sidereal Time07:27:25
Azimuth56.091° ENE
Elevation-40.32°
Doppler factor1
Orbital elements
Apogee altitude35,791.832 km
Perigee altitude35,785.591 km
Semi-major axis42,166.849 km
Eccentricity0.000074
Inclination0.0827°
RAAN253.1803°
Arg. of periapsis328.0382°
True anomaly138.79479°
Mean anomaly138.7892°
Eccentric anomaly138.79199°
Mean motion0.25066 °/min
BSTARUnknown
Orbital period1436.2 mins
Loading historical data...
44475 neighbors
Authenticating...
Loading maneuver chart data...
Loading historical data...
Loading historical data...
Loading historical data...
Loading historical data...
Loading historical data...
Loading historical data...
Loading historical data...
Other satellites on launch #49 in the year 2019 (2019-08-06 UTC)

EDRS-C Visibility forecast

Observer location: undefined°, undefined

EDRS-C is not visible in the next 10 days
Span
Click to sort rows by Start time (UTC) header in descending order
Start Az.
Max El. time (UTC)
Max El. Az.
Max El.
End time (UTC)
End Az.
|